Wetbulb
56.48 56.29 55.97 55.90 55.75 55.30 55.36 55.43 55.40 55.18 55.19 55.49 55.75 55.67 55.83 55.69 55.96 56.35 56.92 57.22 56.88 56.46 56.53 57.00 57.77 58.72 60.78 58.74 57.50 67.66 72.99 72.20 69.90 66.31 64.91 61.48 60.39 59.98 58.70 59.00 60.36 59.34 60.94 61.29 62.17 63.42 63.67
56.20 55.95 55.56 55.49 55.55 55.51 55.06 55.10 55.20 54.86 54.92 54.82 55.21 55.81 56.02 56.03 55.72 56.14 56.39 56.48 56.07 55.59 56.19 57.00 57.70 58.30 60.15 54.33 62.12 65.01 64.51 66.61 64.68 64.77 61.99 61.40 60.49 60.66 59.09 59.17 59.18 60.94 60.83 60.64 61.60 61.91 63.69
55.60 55.66 55.31 55.79 55.53 55.91 55.12 55.02 54.66 54.78 54.83 54.76 55.12 55.30 55.70 55.52 55.12 55.30 55.74 55.69 54.86 55.07 56.19 57.74 58.27 60.29 58.75 57.46 62.15 62.57 65.36 64.54 65.02 63.37 61.17 61.13 61.38 58.96 59.15 58.03 60.83 60.76 58.39 60.84 61.49 61.73 62.11
55.37 55.26 55.47 55.72 55.46 55.00 55.05 54.46 54.50 54.31 54.38 54.58 54.90 55.14 55.30 55.00 54.73 55.00 54.98 54.23 54.18 55.85 57.99 59.10 60.08 61.63 56.69 63.23 65.10 62.75 62.56 62.01 63.96 64.65 62.59 62.35 61.17 59.41 58.68 60.83 59.99 58.25 58.86 56.42 61.41 61.88 62.58
55.35 55.51 55.25 55.05 55.10 55.21 55.11 54.55 54.18 54.48 54.62 54.78 54.85 54.95 54.95 55.06 54.65 54.24 53.39 53.33 54.66 58.21 59.40 60.08 62.15 62.34 56.60 65.17 61.63 63.26 63.47 61.44 62.48 62.49 63.74 62.14 60.84 57.36 57.93 55.38 55.10 57.84 54.31 56.40 58.37 62.63 63.47
55.74 55.34 55.03 54.90 54.78 54.99 55.18 55.04 54.60 54.73 54.54 54.50 54.57 54.55 54.51 54.40 53.89 53.17 52.32 52.90 57.50 59.30 61.23 63.64 64.06 60.11 60.77 58.72 61.98 63.14 64.35 62.49 59.79 60.73 59.33 58.57 57.10 54.89 55.01 55.05 50.89 54.70 55.32 57.26 58.97 60.47 63.22
55.45 55.03 54.94 54.80 54.70 54.80 54.80 54.92 54.73 54.68 54.52 54.48 54.51 54.32 54.01 53.52 53.02 51.93 53.33 58.98 58.28 59.44 61.38 58.68 59.41 58.21 58.99 61.24 63.82 61.32 63.25 60.91 59.24 58.94 54.19 55.85 52.32 50.60 53.77 56.42 57.12 57.84 57.33 56.56 58.99 61.08 61.32
55.62 54.94 54.73 54.74 54.74 54.82 54.85 54.93 54.90 54.57 54.33 54.29 54.18 53.95 53.66 52.96 52.07 51.36 54.47 53.95 54.03 53.55 49.30 54.69 55.90 56.66 58.59 59.49 56.11 59.64 63.17 57.10 55.69 53.46 55.67 53.43 50.38 54.06 56.24 57.15 56.67 56.85 56.49 56.98 59.53 60.05 61.09
55.06 55.02 54.82 55.37 55.20 55.21 54.96 54.88 54.53 54.34 53.95 53.95 53.91 53.74 53.00 52.20 51.23 55.35 53.49 54.48 56.45 56.17 49.98 52.46 55.49 55.01 56.13 57.40 54.26 55.83 58.78 58.62 54.68 53.12 53.76 51.51 52.68 54.87 54.86 55.69 55.62 56.36 55.91 56.88 57.09 61.40 62.27
55.49 55.22 55.38 55.56 55.24 54.78 54.63 54.45 54.32 54.16 53.93 53.81 53.79 53.48 52.59 50.87 51.74 53.91 53.89 57.15 57.23 56.37 47.45 50.79 52.87 54.63 56.46 57.01 53.44 57.75 59.41 57.15 56.38 53.15 53.52 53.25 55.03 53.19 53.14 53.72 55.73 53.99 57.66 57.82 57.48 57.19 55.41
55.58 55.56 55.48 55.44 54.97 54.53 54.26 53.99 54.17 53.89 53.58 53.58 53.70 53.08 51.70 50.06 51.56 52.24 54.32 56.28 56.02 55.15 41.74 53.74 54.43 59.99 58.74 56.32 58.00 57.23 60.47 57.45 54.39 54.32 54.31 52.07 52.51 52.69 51.77 53.15 56.18 54.90 58.15 57.76 57.76 57.85 57.88
55.91 55.73 55.54 55.20 54.81 54.45 54.01 53.66 53.85 53.52 53.35 53.17 53.10 52.15 51.32 52.89 54.44 55.88 56.54 55.86 54.98 46.62 42.16 51.22 55.35 54.49 55.32 56.34 55.92 57.80 56.87 58.58 57.97 55.07 55.01 54.12 56.50 54.22 53.98 54.98 56.07 57.34 56.85 57.51 57.18 56.39 51.98
56.05 55.93 55.49 55.15 54.78 54.22 53.66 53.70 53.56 53.12 52.88 52.63 51.81 50.42 50.48 52.83 50.56 56.25 55.84 52.72 44.78 42.53 52.02 50.46 51.62 53.67 53.64 53.14 54.01 55.18 53.78 52.92 51.65 49.33 50.59 53.02 53.26 55.30 54.99 52.60 55.27 55.39 54.37 50.16 49.96 49.71 49.42
56.01 55.88 55.65 55.16 54.81 54.36 53.87 53.91 53.70 52.80 52.74 52.08 50.27 48.75 52.92 54.98 57.24 56.36 52.72 46.53 40.43 47.62 48.90 52.95 52.83 53.60 51.42 53.66 53.43 54.01 53.26 51.26 53.74 53.34 51.55 49.50 47.97 53.16 54.76 52.98 52.01 53.31 53.71 49.96 46.52 48.13 50.61
55.82 55.55 55.61 55.34 54.93 54.66 54.34 53.83 53.39 52.88 52.53 51.41 49.32 53.66 53.27 55.48 56.65 55.60 48.94 40.90 43.60 47.44 51.26 50.96 51.99 50.40 51.31 52.79 52.89 52.39 53.03 52.17 53.48 53.92 50.73 50.60 50.14 55.01 54.81 54.71 53.71 52.70 51.59 56.11 52.53 54.24 51.36
55.33 55.21 54.98 54.73 54.42 54.20 53.80 53.48 53.19 52.75 52.26 50.90 49.95 51.43 52.19 56.08 58.04 53.74 46.20 41.49 46.63 49.63 51.24 51.08 48.38 51.06 49.59 51.35 51.12 51.58 52.11 54.46 53.43 54.80 55.99 53.72 50.40 54.43 54.18 54.79 54.10 52.50 55.56 51.47 53.84 48.79 47.38
53.99 53.91 54.23 54.10 54.20 53.91 53.79 53.46 53.17 52.51 51.67 50.72 50.28 47.13 54.64 56.91 57.53 50.46 42.29 44.26 46.70 49.35 50.32 48.65 48.91 49.63 50.34 50.28 51.57 51.35 51.24 53.36 54.77 55.02 55.87 54.10 53.16 52.76 54.93 52.31 50.83 50.88 50.45 53.72 53.99 52.99 49.21
53.57 53.63 53.66 53.64 53.72 53.76 53.21 53.52 52.82 51.83 50.58 49.54 49.13 43.92 54.26 57.98 47.71 48.16 45.73 47.52 47.56 48.86 51.07 48.87 49.12 49.91 50.65 51.36 50.65 51.02 50.81 53.04 55.75 55.67 53.11 55.17 53.38 50.78 52.13 55.36 55.53 53.63 51.94 52.20 51.09 51.79 52.77
53.11 53.09 52.89 52.99 53.21 52.93 52.99 52.98 52.28 51.26 50.99 49.42 45.64 47.31 53.57 51.57 40.38 43.27 47.11 47.46 49.04 48.68 49.33 48.89 47.81 48.74 50.44 49.74 48.92 51.26 52.08 54.84 54.89 54.84 54.57 55.29 51.91 48.77 50.82 53.21 54.54 52.35 52.80 52.98 53.00 54.64 54.31
52.25 52.21 52.15 52.23 52.37 52.18 52.36 52.42 51.77 51.17 51.24 49.00 45.12 42.01 47.61 48.71 47.77 44.10 43.38 44.67 45.13 49.86 49.06 49.51 49.09 49.71 47.93 47.46 50.55 49.45 50.67 53.28 54.72 54.24 61.20 59.21 53.93 51.71 48.81 51.50 53.21 50.57 51.42 52.08 52.02 49.99 51.64
52.18 52.18 52.04 52.12 52.08 51.94 52.06 52.15 51.68 51.14 50.60 46.73 44.37 42.83 45.66 41.18 44.05 43.27 43.20 42.62 43.03 43.19 49.52 50.08 48.20 47.76 47.47 45.54 46.85 47.52 50.43 52.22 53.18 56.87 55.74 55.26 52.04 53.50 53.46 54.05 54.22 52.75 50.76 50.99 50.44 51.92 50.78
52.09 52.07 52.09 52.16 51.95 51.72 51.79 51.86 51.82 50.82 50.01 43.98 42.21 42.31 44.45 43.28 44.87 41.95 40.81 40.94 40.62 43.14 44.37 43.34 44.99 47.61 48.15 46.34 47.74 46.80 49.44 51.15 51.96 53.52 54.19 55.51 51.94 54.39 51.96 53.26 52.84 51.40 52.92 52.51 51.60 51.39 51.88
51.32 51.53 51.78 51.93 51.97 51.86 51.68 51.57 51.59 50.69 48.98 44.35 46.84 47.87 44.37 40.74 41.60 40.45 39.79 40.26 41.34 43.10 44.50 46.38 44.49 44.74 47.17 48.56 50.17 52.43 54.20 53.42 53.63 54.12 54.10 54.52 53.84 53.66 50.34 53.79 53.29 49.96 52.20 52.77 53.66 54.14 52.80
51.02 50.95 51.36 51.63 51.55 51.76 51.63 51.48 51.31 51.11 50.01 48.83 46.53 44.43 40.27 37.62 39.94 39.33 40.67 39.53 40.69 41.74 41.60 44.69 44.81 43.22 48.06 51.20 52.39 52.81 52.91 54.19 54.46 54.31 54.64 54.01 54.57 53.45 50.29 53.30 45.52 53.68 57.30 56.38 54.43 54.97 55.74
50.74 50.83 51.04 51.33 51.26 51.39 51.35 51.50 51.29 51.14 50.87 49.96 48.59 42.55 39.73 37.46 39.52 40.48 40.34 39.28 40.91 43.14 43.16 41.83 43.85 46.72 48.53 48.46 46.33 46.03 46.97 47.43 49.53 52.22 54.56 56.98 54.87 51.06 49.68 49.74 52.06 53.28 56.91 57.24 56.67 55.23 57.15
50.87 50.66 50.78 50.95 51.14 51.11 51.39 51.53 51.26 50.96 51.16 50.68 50.91 47.60 41.88 35.88 38.06 40.80 38.96 39.68 37.44 38.98 41.93 44.49 46.78 49.04 47.88 44.75 42.41 40.17 40.15 44.57 44.30 47.40 53.14 55.01 56.69 53.48 52.59 47.94 46.59 54.14 59.02 61.41 59.81 52.48 58.38
50.74 50.51 50.60 50.78 51.17 51.08 51.45 51.20 51.14 50.97 50.57 51.41 48.21 48.74 42.54 37.07 40.29 42.27 38.97 37.88 41.63 39.59 40.90 42.33 44.86 43.95 46.31 40.84 39.48 39.98 41.25 46.95 43.01 44.26 47.31 49.03 51.48 49.14 50.25 49.62 52.47 58.75 59.88 61.37 51.34 54.09 63.74
50.60 50.53 50.34 50.11 50.83 51.04 50.95 50.98 51.03 50.96 50.39 50.34 49.38 52.16 44.41 39.34 40.01 44.53 45.05 42.59 40.75 43.02 38.16 42.58 44.32 43.18 43.45 40.58 41.52 42.51 42.67 45.65 46.32 50.09 50.26 48.88 49.46 48.95 51.06 48.59 46.79 60.68 60.17 55.94 61.23 64.16 64.66
50.88 50.57 50.41 49.96 50.58 50.53 50.72 50.58 50.49 49.95 49.70 49.66 46.21 50.20 48.96 41.71 41.83 48.09 48.36 48.98 47.78 47.72 44.89 44.82 43.35 41.69 45.67 44.46 46.45 45.50 45.54 48.70 48.96 44.95 53.90 49.31 53.20 51.67 52.91 53.22 61.91 62.70 60.67 63.26 64.18 64.13 64.87
MSLP
1024.15 1023.75 1023.40 1023.00 1022.59 1022.13 1021.68 1021.16 1020.65 1020.18 1019.70 1019.15 1018.63 1018.13 1017.56 1016.92 1016.24 1015.49 1014.85 1014.33 1013.69 1013.02 1012.66 1012.35 1012.01 1011.55 1010.40 1006.98 1003.54 1002.91 1003.71 1004.27 1004.23 1003.83 1002.85 1001.69 1001.10 1000.51 999.74 998.84 998.25 997.84 997.69 997.53 997.57 997.85 998.18
1024.29 1023.90 1023.49 1023.02 1022.57 1022.16 1021.73 1021.23 1020.66 1020.16 1019.63 1019.07 1018.51 1017.92 1017.32 1016.66 1015.97 1015.23 1014.57 1014.00 1013.43 1012.75 1012.18 1011.85 1011.67 1011.57 1009.52 1005.05 1001.63 1002.11 1002.68 1003.18 1002.86 1002.87 1002.17 1001.56 1000.59 1000.27 999.57 998.78 997.75 997.33 997.27 997.26 997.17 997.01 997.95
1024.37 1024.00 1023.56 1023.08 1022.58 1022.14 1021.67 1021.17 1020.66 1020.15 1019.63 1019.06 1018.43 1017.79 1017.17 1016.45 1015.66 1014.83 1014.08 1013.47 1012.88 1012.23 1011.60 1011.14 1011.04 1010.60 1007.32 1003.29 1001.34 1001.45 1002.00 1001.82 1001.66 1001.84 1001.28 1001.14 1000.76 1000.18 999.68 998.64 997.96 997.53 997.29 997.12 997.14 996.94 997.60
1024.49 1024.13 1023.66 1023.20 1022.80 1022.42 1021.99 1021.48 1020.89 1020.34 1019.83 1019.15 1018.36 1017.64 1016.98 1016.19 1015.38 1014.56 1013.75 1012.83 1012.14 1011.47 1010.82 1010.51 1010.42 1009.27 1004.79 1001.06 1000.96 1000.84 1001.41 1001.32 1001.21 1001.06 1001.02 1000.43 1000.71 1000.10 999.32 998.62 997.81 997.28 997.08 996.15 995.91 996.73 997.45
1024.64 1024.19 1023.75 1023.31 1022.85 1022.39 1021.94 1021.50 1020.99 1020.41 1019.80 1019.16 1018.43 1017.56 1016.86 1015.79 1014.84 1013.91 1013.25 1012.19 1011.42 1010.84 1010.40 1010.24 1009.39 1007.21 1002.62 1001.39 1000.92 1000.52 1000.63 1000.50 1000.48 1000.61 1000.66 1000.54 1000.43 1000.08 999.77 998.82 997.53 996.77 995.90 995.49 995.75 996.49 997.19
1024.53 1024.15 1023.69 1023.25 1022.80 1022.36 1021.87 1021.37 1020.85 1020.27 1019.67 1019.06 1018.36 1017.42 1016.82 1015.76 1014.69 1013.59 1012.33 1010.84 1010.37 1010.44 1010.13 1008.98 1007.44 1005.59 1001.45 999.57 999.26 999.43 999.62 999.90 999.79 1000.08 1000.40 1000.49 1000.06 999.45 998.98 997.82 996.37 995.72 995.40 994.39 994.82 996.01 996.76
1024.53 1024.12 1023.69 1023.28 1022.85 1022.36 1021.81 1021.22 1020.63 1020.05 1019.43 1018.87 1018.22 1017.39 1016.48 1015.46 1014.34 1013.57 1012.14 1008.55 1009.52 1008.72 1007.12 1004.16 1001.97 1000.44 998.97 998.81 999.06 999.33 999.26 999.40 999.50 999.62 999.14 999.23 998.69 997.35 997.37 997.09 996.47 995.22 994.40 993.93 993.99 995.00 996.33
1024.36 1023.96 1023.56 1023.11 1022.64 1022.20 1021.75 1021.20 1020.57 1019.98 1019.32 1018.60 1018.04 1017.28 1016.27 1015.31 1013.97 1012.98 1012.35 1008.44 1007.46 1007.56 1004.71 1002.45 1000.87 999.60 998.75 998.47 998.19 998.47 998.74 998.89 998.67 998.34 998.57 998.03 996.92 996.88 997.11 996.72 996.13 995.11 993.99 993.56 993.90 994.61 995.68
1024.20 1023.79 1023.39 1022.91 1022.44 1022.05 1021.62 1021.15 1020.61 1019.96 1019.33 1018.61 1017.91 1017.34 1016.33 1014.86 1013.08 1011.87 1009.82 1008.17 1007.66 1007.05 1004.30 999.58 998.02 997.51 997.18 997.72 997.27 997.27 997.83 998.02 997.73 997.53 997.08 996.07 995.94 996.54 996.21 995.79 995.40 994.79 993.85 993.23 993.31 994.30 995.68
1024.00 1023.61 1023.28 1022.85 1022.32 1021.86 1021.42 1020.91 1020.36 1019.71 1019.08 1018.49 1017.79 1017.23 1016.61 1015.22 1012.45 1010.59 1008.21 1007.84 1007.64 1007.19 1003.45 997.44 996.14 995.73 996.27 996.63 996.20 996.56 996.60 997.10 997.12 996.54 996.44 995.80 995.30 995.36 995.49 995.05 995.00 994.18 994.37 993.59 993.35 994.73 994.65
1023.89 1023.47 1023.06 1022.61 1022.10 1021.65 1021.27 1020.74 1020.17 1019.50 1018.86 1018.23 1017.58 1016.81 1016.62 1016.21 1013.84 1010.63 1008.40 1008.03 1007.70 1006.89 1001.15 995.06 994.98 994.89 995.08 995.48 994.58 995.14 995.88 996.09 995.85 995.73 995.73 994.69 994.69 994.31 994.43 994.20 994.64 994.14 994.05 993.87 993.50 993.47 995.28
1023.52 1023.12 1022.71 1022.30 1021.91 1021.44 1020.95 1020.49 1019.96 1019.34 1018.63 1017.92 1017.15 1016.45 1016.11 1013.41 1012.45 1010.07 1009.18 1008.65 1007.60 1004.72 997.99 994.45 994.26 994.66 994.57 994.42 994.15 994.81 995.10 995.41 995.79 995.49 995.15 994.47 994.34 994.26 993.80 994.32 994.37 994.71 994.15 993.74 993.68 993.32 992.63
1023.14 1022.73 1022.36 1022.00 1021.61 1021.16 1020.59 1020.05 1019.43 1018.77 1018.14 1017.43 1016.55 1015.73 1015.45 1014.52 1010.64 1008.64 1008.57 1007.59 1005.35 1000.49 995.60 993.56 993.20 993.35 993.39 992.87 993.21 993.88 994.26 994.03 994.09 994.39 993.97 994.17 993.49 993.63 993.71 994.00 994.19 994.47 994.07 993.31 992.79 992.28 992.16
1022.71 1022.34 1021.89 1021.55 1021.21 1020.74 1020.12 1019.66 1019.05 1018.34 1017.68 1016.92 1015.86 1014.53 1012.20 1010.92 1010.14 1010.11 1009.45 1006.96 1002.06 996.95 995.30 992.78 992.44 992.43 992.22 991.60 991.95 992.49 993.09 993.13 993.48 993.09 992.66 992.78 992.59 992.86 993.01 992.93 993.20 993.17 993.04 992.20 991.70 991.33 991.44
1022.34 1021.91 1021.47 1021.11 1020.78 1020.41 1020.01 1019.61 1019.11 1018.40 1017.59 1016.64 1015.28 1012.02 1009.90 1008.50 1008.78 1009.39 1008.07 1003.86 998.60 997.14 994.38 993.13 992.47 991.64 991.19 991.24 991.20 991.47 991.73 991.90 992.03 992.42 991.79 991.24 991.60 992.00 992.44 992.99 993.39 992.26 991.91 992.27 991.91 991.39 991.02
1021.91 1021.53 1021.19 1020.81 1020.46 1020.14 1019.77 1019.35 1018.83 1018.25 1017.54 1016.60 1015.02 1011.63 1008.13 1007.51 1008.35 1008.51 1006.49 1000.96 998.16 996.76 994.62 993.64 991.93 991.41 990.66 990.51 990.69 990.64 990.36 990.60 990.78 991.29 991.61 991.07 990.85 991.03 991.56 992.61 992.52 991.98 991.83 991.87 990.94 990.22 989.60
1021.60 1021.22 1020.81 1020.42 1020.05 1019.75 1019.37 1018.94 1018.52 1018.03 1017.45 1016.21 1014.29 1009.93 1006.93 1007.50 1008.19 1007.12 1003.16 1000.29 999.51 997.88 996.07 994.95 993.00 991.72 990.69 990.13 989.80 989.58 989.84 990.03 989.80 990.10 990.98 991.25 990.83 990.63 990.89 990.36 990.82 991.57 990.80 990.38 990.95 990.74 989.48
1021.19 1020.80 1020.38 1019.92 1019.60 1019.22 1018.88 1018.53 1018.29 1017.98 1017.46 1015.53 1013.34 1009.38 1006.88 1007.44 1006.86 1004.80 1002.41 1001.20 999.96 997.60 996.25 995.35 994.18 992.71 991.60 990.44 989.80 989.13 988.73 989.06 988.97 989.63 989.60 990.51 990.55 990.11 989.71 990.20 990.67 990.76 990.53 990.61 989.67 989.91 989.55
1020.85 1020.42 1019.93 1019.51 1019.12 1018.76 1018.51 1018.21 1018.05 1017.94 1017.74 1016.11 1012.77 1009.23 1007.15 1006.54 1005.19 1003.62 1002.28 1000.76 999.39 998.15 996.71 995.37 994.23 993.77 993.20 991.63 990.62 989.86 989.23 988.96 989.60 989.73 989.27 990.13 990.25 989.83 989.94 989.94 989.71 989.51 989.68 989.40 989.50 989.50 988.41
1020.46 1019.96 1019.54 1019.07 1018.70 1018.35 1018.09 1017.86 1017.77 1017.67 1017.52 1017.13 1013.95 1008.87 1005.74 1005.21 1005.00 1004.03 1002.80 1000.98 999.29 998.16 997.18 996.17 995.09 994.31 993.71 992.67 991.47 990.67 989.98 989.33 989.81 990.57 990.62 990.30 989.68 989.29 988.17 988.64 988.92 989.00 989.30 989.36 989.00 988.24 988.18
1019.84 1019.41 1019.01 1018.59 1018.23 1017.92 1017.65 1017.37 1017.32 1017.27 1017.30 1017.29 1014.33 1010.41 1007.66 1006.10 1004.47 1005.02 1005.14 1004.36 1001.73 1000.83 999.08 997.88 996.54 995.26 993.59 993.37 992.06 991.22 990.70 989.86 989.90 990.49 990.92 990.50 989.61 989.29 989.12 988.64 988.43 988.17 988.31 988.65 988.45 988.01 987.59
1019.18 1018.67 1018.22 1017.92 1017.66 1017.41 1017.23 1016.85 1016.85 1016.70 1016.93 1017.07 1014.74 1011.86 1010.60 1008.93 1007.37 1006.32 1005.86 1004.73 1003.04 1002.23 1001.62 1000.32 998.40 996.50 995.01 993.81 992.63 991.76 990.97 990.18 989.26 990.02 990.33 990.12 989.73 989.63 988.89 988.81 988.73 988.07 987.67 987.71 987.91 988.08 987.65
1018.57 1018.04 1017.60 1017.19 1016.96 1016.73 1016.47 1016.44 1016.40 1016.39 1016.62 1016.22 1014.87 1013.49 1012.28 1009.99 1008.27 1006.79 1005.57 1005.44 1004.21 1002.74 1002.81 1002.31 1001.60 1000.26 997.45 996.18 995.18 993.47 991.54 990.39 990.03 989.73 989.65 989.70 989.57 989.78 988.90 988.87 988.35 987.92 987.28 987.14 987.01 987.09 987.51
1018.01 1017.44 1016.94 1016.49 1016.19 1015.98 1015.79 1015.73 1015.81 1015.71 1015.82 1015.57 1015.27 1014.92 1013.34 1010.35 1008.72 1007.68 1007.19 1006.49 1005.76 1004.93 1004.27 1002.58 1002.52 1002.36 1000.52 999.64 996.80 994.69 993.10 991.35 990.60 990.02 989.70 989.37 989.64 989.63 989.14 988.79 988.16 986.79 987.12 986.93 986.87 986.81 986.91
1017.32 1016.82 1016.33 1015.90 1015.52 1015.19 1015.07 1015.04 1014.99 1014.92 1014.94 1015.04 1014.98 1015.24 1014.27 1011.39 1009.52 1008.16 1007.53 1007.19 1006.94 1005.36 1003.95 1003.34 1002.54 1003.00 1002.70 1000.55 997.97 995.18 993.43 992.74 991.75 991.48 990.65 989.88 989.84 989.93 989.01 988.39 989.45 988.55 988.15 987.02 986.92 986.19 986.10
1016.61 1016.12 1015.71 1015.29 1014.93 1014.67 1014.44 1014.34 1014.20 1014.14 1014.18 1014.24 1014.14 1014.64 1014.50 1013.16 1010.10 1009.15 1008.76 1008.14 1007.57 1006.00 1004.00 1002.27 1002.59 1002.80 1003.14 1001.39 998.73 995.67 993.63 992.54 992.15 991.66 991.20 990.73 990.57 989.97 989.12 988.40 987.42 987.49 988.28 988.42 988.08 987.21 986.89
1015.95 1015.55 1015.16 1014.75 1014.39 1014.14 1013.92 1013.79 1013.59 1013.53 1013.49 1013.55 1013.54 1014.05 1014.13 1013.09 1010.91 1009.86 1008.48 1008.21 1007.15 1006.90 1004.77 1004.08 1002.93 1002.88 1002.67 1001.12 999.33 997.16 994.58 993.11 991.63 990.61 990.11 989.87 989.86 989.39 989.34 988.40 987.92 988.10 988.62 989.18 989.12 989.00 988.62
1015.34 1014.91 1014.58 1014.27 1013.95 1013.59 1013.35 1013.25 1013.12 1012.99 1012.99 1013.13 1012.56 1012.67 1013.48 1012.24 1010.74 1009.66 1008.37 1007.48 1006.62 1005.50 1004.34 1004.61 1002.35 1003.21 1002.79 1001.82 1000.01 997.56 995.36 993.06 991.63 989.79 989.01 988.78 988.82 988.47 989.07 988.97 988.53 989.45 989.36 989.67 990.08 989.78 989.29
1014.66 1014.36 1014.07 1013.76 1013.50 1013.21 1012.95 1012.77 1012.65 1012.63 1012.71 1012.84 1012.51 1012.33 1012.66 1012.51 1010.25 1008.72 1007.77 1006.94 1006.06 1004.95 1004.18 1003.76 1003.42 1003.99 1002.56 1002.00 1000.61 999.41 997.16 994.85 992.08 990.14 988.66 987.95 987.52 988.08 988.59 988.68 990.00 990.58 990.58 991.26 990.68 990.10 989.64
Wind_Speed
18 19 19 18 18 18 20 20 20 21 21 21 22 22 23 23 24 24 23 21 22 23 21 19 17 16 12 11 18 13 12 10 13 17 20 19 21 19 20 17 15 11 11 6 5 9 9
18 18 19 18 18 18 20 21 21 21 21 22 22 22 22 22 24 24 24 23 22 24 23 19 15 11 9 19 13 12 10 12 14 17 20 20 18 18 18 21 18 12 12 10 5 10 11
18 18 18 18 19 19 20 22 22 22 22 23 23 22 22 23 25 26 26 23 26 25 23 18 11 9 13 20 6 5 11 13 14 16 18 21 21 18 19 20 18 13 12 14 10 8 11
17 17 18 18 17 17 18 20 21 21 22 22 23 24 24 25 26 25 25 27 26 23 14 9 9 11 11 13 8 13 13 14 13 14 18 16 19 23 19 18 23 18 18 16 14 13 12
17 17 17 18 18 17 18 19 20 20 20 20 22 23 24 26 27 27 25 28 25 13 6 6 10 10 14 5 11 15 16 16 15 14 15 13 13 21 19 18 17 18 17 21 13 15 14
18 18 18 19 19 18 17 18 19 20 21 21 22 24 23 26 27 28 30 29 6 6 9 9 10 8 11 14 11 8 8 14 14 14 14 17 14 18 20 19 18 19 21 20 20 17 12
17 18 18 18 19 19 19 19 20 20 22 22 22 24 26 27 28 27 20 4 8 10 16 16 9 12 6 9 5 11 10 14 16 17 18 20 19 23 26 26 23 23 21 19 15 24 19
15 17 17 18 19 19 19 20 20 21 22 23 23 24 27 29 32 29 13 9 8 9 15 20 27 28 25 17 14 19 14 15 18 19 21 17 24 24 25 26 24 28 23 18 13 17 21
15 16 16 16 16 17 18 19 20 20 21 22 23 23 26 30 33 14 13 10 5 12 11 17 26 25 26 24 26 21 22 20 19 22 23 24 21 24 25 25 27 25 24 19 17 28 22
14 14 14 15 15 16 18 20 20 21 21 22 24 23 23 30 14 16 7 4 8 9 10 14 10 10 14 13 17 22 24 25 24 23 24 25 21 24 27 28 26 25 25 24 19 11 12
15 15 15 16 15 15 17 19 20 21 21 23 23 25 20 17 15 9 9 9 10 7 10 10 12 15 18 18 13 19 23 26 26 22 19 23 25 24 30 29 29 24 24 24 23 18 24
17 16 16 15 17 16 16 18 19 20 21 22 23 23 22 15 10 14 14 11 9 10 15 9 11 15 19 21 14 10 17 25 22 22 23 25 21 27 22 26 22 24 23 24 23 18 19
17 18 17 16 16 16 16 18 20 21 22 23 24 23 21 14 11 6 7 8 9 15 4 11 16 20 21 19 20 14 18 26 23 25 23 23 27 23 24 24 24 29 25 16 20 19 18
17 17 17 16 16 17 17 18 19 21 21 23 25 31 14 11 13 14 9 10 19 12 28 2 17 20 24 19 19 20 17 21 29 24 17 21 22 29 21 28 27 31 28 19 25 18 18
17 17 16 15 16 17 17 18 18 20 21 23 30 12 12 11 10 10 11 19 15 22 18 19 12 21 24 23 19 20 22 22 25 26 24 19 25 18 29 26 27 29 31 27 27 24 21
17 16 16 15 16 16 15 18 17 19 20 22 13 15 16 14 8 10 14 29 23 32 15 16 25 20 21 24 21 20 20 22 24 27 26 19 18 22 24 25 26 34 23 28 22 28 26
16 16 17 18 17 16 16 17 16 17 19 25 11 7 5 6 8 11 19 24 28 37 32 27 23 25 26 24 26 25 24 23 21 24 26 24 19 15 23 31 29 20 28 24 26 24 21
19 18 18 17 16 17 17 15 14 13 16 19 9 9 9 4 11 11 20 27 26 31 26 30 25 28 25 25 21 20 19 25 19 19 27 24 16 17 21 23 25 28 27 32 20 29 20
18 18 18 17 16 16 16 14 12 11 11 10 9 12 14 11 15 16 22 30 30 31 31 31 28 30 26 27 24 22 19 19 8 16 20 20 19 17 22 21 24 28 29 31 33 24 25
20 20 20 18 18 18 17 15 11 10 9 8 8 8 9 12 13 21 23 26 24 24 26 27 25 26 27 32 25 23 25 22 17 14 3 10 21 24 18 21 19 25 31 31 29 24 21
21 21 20 19 19 18 17 15 12 10 7 4 7 11 9 12 11 10 15 23 19 21 26 23 23 31 28 30 26 26 26 20 27 19 20 17 20 23 25 25 19 23 27 27 32 31 28
22 22 21 20 19 18 16 14 12 9 4 4 7 7 8 14 20 20 17 20 20 18 17 25 25 23 26 26 24 25 27 24 20 24 21 21 19 19 21 23 24 25 22 28 29 31 33
22 22 21 21 19 19 17 14 11 7 8 3 5 10 8 9 17 15 12 21 27 14 9 20 13 18 21 14 18 20 20 21 22 18 22 22 17 18 21 22 21 24 28 26 24 26 26
23 23 22 21 19 18 17 15 14 11 14 4 3 4 7 13 11 14 20 7 24 17 16 19 11 12 18 30 24 18 16 13 9 16 19 20 21 15 18 17 21 17 18 26 27 27 26
23 23 22 21 19 18 17 16 16 14 10 8 3 3 5 10 12 13 16 11 16 22 21 17 19 11 17 23 14 9 10 11 17 17 18 17 15 18 16 16 10 12 12 6 11 18 26
24 22 21 20 19 17 17 16 15 11 11 9 7 4 4 3 11 3 11 9 12 14 17 17 10 7 9 11 11 12 13 13 19 23 22 22 16 14 14 23 23 9 10 8 5 12 14
23 21 19 19 17 17 17 15 13 12 7 7 3 7 3 5 10 19 14 7 11 9 10 11 5 5 10 7 9 14 15 20 22 28 19 22 20 22 18 16 16 5 7 2 11 7 14
21 20 18 16 16 16 14 13 14 13 8 9 5 9 6 4 9 20 24 21 18 14 10 9 7 6 3 7 11 13 15 19 21 22 25 23 21 19 19 22 24 5 8 12 7 11 13
20 17 15 14 16 12 13 12 7 6 7 8 5 5 8 7 11 18 22 22 23 20 16 13 9 2 4 5 3 7 5 10 16 17 26 26 20 17 12 13 10 8 9 2 7 9 8
Wind_Direction
7 7 9 4 3 1 360 356 355 353 351 348 345 341 338 336 333 328 325 324 319 316 313 312 311 314 297 245 255 148 141 157 180 203 217 223 221 224 234 244 239 229 272 246 215 166 238
6 3 3 360 1 358 358 354 351 350 348 347 343 340 336 333 330 326 323 319 316 310 307 302 296 297 251 263 266 146 197 164 205 207 215 228 225 226 246 246 254 234 235 262 238 226 177
4 1 360 357 359 355 356 354 351 348 345 343 340 338 335 331 328 324 319 315 313 308 301 291 266 233 262 253 266 202 202 215 207 204 225 218 234 230 235 259 252 264 257 234 221 206 161
1 358 357 354 357 354 352 351 348 346 341 339 336 334 332 328 325 320 317 314 310 306 291 263 219 219 259 270 242 230 220 233 232 228 231 227 224 245 247 236 252 236 243 243 181 167 147
356 354 353 353 351 348 344 346 345 342 339 337 333 332 332 326 324 320 317 309 303 289 260 190 201 232 258 136 217 224 215 224 209 220 218 240 239 227 237 245 249 229 228 227 145 172 153
350 349 348 348 347 343 340 339 338 337 337 336 334 330 330 324 321 320 319 298 278 224 214 216 267 247 242 227 186 170 197 218 193 193 198 209 217 215 222 224 227 220 220 224 175 170 182
344 342 342 341 342 341 338 336 334 333 333 335 335 332 330 326 321 318 322 246 216 191 223 246 241 230 122 174 142 213 177 202 200 196 207 199 206 210 210 225 228 236 220 236 208 159 193
336 338 334 333 333 334 333 333 332 329 330 332 335 334 330 326 318 316 288 293 17 336 291 261 255 255 257 266 240 216 175 203 206 212 210 187 218 214 221 218 228 241 246 228 215 147 196
331 326 325 322 326 327 328 328 329 328 327 328 329 333 330 325 317 289 315 288 350 338 265 273 238 237 238 225 234 229 218 213 212 215 212 222 207 217 216 222 223 232 244 240 220 158 212
325 320 321 320 324 328 328 326 327 327 327 324 324 328 330 329 289 339 287 30 289 325 274 256 194 226 212 210 228 226 224 213 228 222 225 226 222 201 220 221 225 227 233 253 235 171 236
316 320 320 318 321 324 323 324 323 325 325 322 322 320 327 317 302 286 359 315 322 262 277 108 137 131 171 194 124 187 210 203 218 215 220 224 225 219 212 221 220 231 229 236 248 202 207
309 310 312 313 317 319 319 319 318 319 318 318 318 315 323 298 234 259 286 283 263 231 237 190 156 186 179 209 236 134 198 212 216 228 227 240 211 228 221 225 221 233 239 239 236 246 245
309 307 298 304 312 314 315 316 315 315 316 317 313 306 300 282 254 24 307 256 229 236 142 202 191 189 202 191 210 183 196 193 201 212 219 224 233 218 238 216 219 224 227 230 231 221 234
303 303 300 293 299 300 301 307 310 313 316 317 311 306 269 241 234 249 263 227 234 241 228 355 203 198 206 210 201 190 196 204 208 210 218 216 214 229 208 224 222 216 221 225 226 231 227
305 305 308 299 300 302 304 307 311 314 319 319 309 298 284 256 220 233 223 221 227 235 269 233 215 242 207 227 229 207 208 209 207 218 222 215 222 213 221 220 225 220 220 230 237 229 237
313 312 315 309 302 301 304 311 313 319 322 315 312 293 267 250 158 213 230 237 235 253 265 256 241 229 232 208 210 235 210 215 216 211 229 230 248 208 211 220 220 238 219 220 230 239 236
319 315 308 305 301 299 305 310 314 321 322 310 279 288 104 159 183 225 233 238 239 258 272 255 259 243 240 236 230 211 229 237 217 217 211 229 241 231 207 204 219 217 236 228 229 235 245
312 309 309 306 304 303 302 309 313 320 324 292 295 269 113 218 226 234 243 250 261 267 256 246 259 267 255 254 243 253 221 238 199 223 210 214 225 229 241 221 214 229 227 234 235 222 238
314 313 312 310 308 309 304 304 307 315 324 313 280 286 275 241 251 251 256 261 250 256 258 256 243 242 255 259 253 240 227 243 206 224 231 198 225 225 222 241 214 218 229 232 231 239 227
311 312 312 311 310 307 302 300 299 303 316 291 283 283 272 207 245 262 273 274 276 265 256 267 259 256 235 250 244 243 243 242 221 219 42 268 227 226 225 224 231 216 220 236 235 234 235
307 306 304 303 303 303 304 301 296 292 307 292 256 274 317 294 268 333 309 318 286 297 294 263 251 253 249 237 236 241 240 227 233 218 243 238 235 237 225 259 242 233 217 228 237 244 238
306 302 298 295 294 295 295 298 297 291 179 234 278 303 320 293 294 292 273 270 277 267 282 300 298 256 252 255 235 232 233 232 224 211 214 219 230 241 241 230 235 257 248 227 223 240 247
308 303 301 297 291 291 291 287 288 286 159 246 262 279 274 279 278 274 271 266 302 265 264 248 356 326 298 325 333 316 299 229 235 231 205 221 215 221 231 233 247 231 235 248 248 231 230
309 306 301 299 294 289 287 285 281 275 208 221 228 331 270 269 279 281 305 276 293 305 281 278 311 290 305 321 317 289 261 274 268 235 244 226 219 232 234 222 233 247 266 246 244 245 237
308 308 307 298 294 294 289 287 280 271 262 221 191 168 276 266 289 284 292 313 289 286 268 260 282 277 296 301 284 237 222 226 239 237 244 245 218 225 236 224 259 291 289 340 329 260 237
308 310 308 301 294 295 296 292 285 269 263 234 240 159 237 283 265 2 313 277 275 278 271 242 218 284 299 273 274 255 214 212 228 227 222 233 230 250 214 240 236 216 58 4 336 270 261
307 306 307 305 297 292 292 289 285 282 267 226 222 184 210 245 265 269 281 296 274 267 274 270 89 265 221 273 251 238 237 230 229 217 199 213 217 216 229 239 248 81 93 59 238 291 340
310 306 305 310 304 295 292 284 286 280 254 217 257 213 220 235 270 269 279 279 282 275 266 312 236 162 236 244 240 239 239 234 238 228 212 203 204 218 215 230 234 81 188 229 10 322 312
311 311 305 304 305 301 302 296 287 271 245 218 274 219 199 232 273 306 279 273 266 264 285 289 299 348 281 267 299 324 329 301 238 255 205 208 209 206 221 213 88 83 76 40 335 313 317